PWSweather.com
Personal Weather Stations
Station Observations
UGLTEWKE1
3 Beckford Close, BeckfordGB GL20 7

3 Beckford CloseBeckfordGB GL20 7

Lat: 52.01582, Lon: -2.037782

Elevation: 112

Station Type: Davis Vantage Pro2

http://www.theshieling.net/weatherdavis.php

Latest ConditionsUpdated 8:40:00 PM GMT Monday, Sep 23, 2019
Currently Today's Max Today's Min Today's Average
Temperature 61.5°F16.4°C 67.5°F19.7°C 55.2°F12.9°C 60.0°F15.6°C
Dew Point 57.4°F14.1°C 57.4°F14.1°C 50.7°F10.4°C 53.9°F12.2°C
Winds 4.0 mph SSE6.4 kmh SSE 12.0 mph -19.3 kmh - - 4.0 mph 6.4 kmh
Wind Gusts 11.0 mph17.7 kmh 24.0 mph38.6 kmh - -
Humidity 86% 90% 60% 81%
Pressure 29.68 in1005.1 mb 29.81 in1009.5 mb 29.68 in1005.1 mb -
Precipitation - 0.07 in1.8 mm - -
Hour Temp Dew Point Humidity Winds Wind Gusts Pressure Precip Precip Rate Daily Precip Total
08:40 PM 61.5°F16.4°C 57.4°F14.1°C 86% 4.0 mph SSE6.4 kmh SSE 11.0 mph17.7 kmh 29.68 in1005.1 mb 0.00 in0.0 mm 0.00 in0.0 mm 0.07 in1.8 mm
08:35 PM 61.7°F16.5°C 57.4°F14.1°C 86% 9.0 mph SSE14.5 kmh SSE 14.0 mph22.5 kmh 29.68 in1005.1 mb 0.00 in0.0 mm 0.00 in0.0 mm 0.07 in1.8 mm
08:30 PM 61.5°F16.4°C 57.4°F14.1°C 86% 7.0 mph SSE11.3 kmh SSE 15.0 mph24.1 kmh 29.68 in1005.1 mb 0.00 in0.0 mm 0.00 in0.0 mm 0.07 in1.8 mm
08:25 PM 61.5°F16.4°C 57.4°F14.1°C 86% 6.0 mph S9.7 kmh S 10.0 mph16.1 kmh 29.68 in1005.1 mb 0.00 in0.0 mm 0.00 in0.0 mm 0.07 in1.8 mm
08:20 PM 61.5°F16.4°C 57.0°F13.9°C 85% 7.0 mph SSE11.3 kmh SSE 16.0 mph25.7 kmh 29.68 in1005.1 mb 0.00 in0.0 mm 0.00 in0.0 mm 0.07 in1.8 mm
08:15 PM 61.5°F16.4°C 57.0°F13.9°C 85% 6.0 mph SSE9.7 kmh SSE 16.0 mph25.7 kmh 29.68 in1005.1 mb 0.00 in0.0 mm 0.00 in0.0 mm 0.07 in1.8 mm
08:10 PM 61.5°F16.4°C 57.0°F13.9°C 85% 8.0 mph SSE12.9 kmh SSE 14.0 mph22.5 kmh 29.68 in1005.1 mb 0.00 in0.0 mm 0.00 in0.0 mm 0.07 in1.8 mm
08:05 PM 61.5°F16.4°C 57.0°F13.9°C 85% 9.0 mph SSE14.5 kmh SSE 14.0 mph22.5 kmh 29.68 in1005.1 mb 0.00 in0.0 mm 0.00 in0.0 mm 0.07 in1.8 mm
08:00 PM 61.5°F16.4°C 57.0°F13.9°C 85% 10.0 mph SSE16.1 kmh SSE 18.0 mph29.0 kmh 29.68 in1005.1 mb 0.00 in0.0 mm 0.00 in0.0 mm 0.07 in1.8 mm
07:55 PM 61.5°F16.4°C 57.0°F13.9°C 85% 9.0 mph SSE14.5 kmh SSE 19.0 mph30.6 kmh 29.68 in1005.1 mb 0.00 in0.0 mm 0.00 in0.0 mm 0.07 in1.8 mm
07:50 PM 61.5°F16.4°C 57.0°F13.9°C 85% 10.0 mph SSE16.1 kmh SSE 21.0 mph33.8 kmh 29.68 in1005.1 mb 0.00 in0.0 mm 0.00 in0.0 mm 0.07 in1.8 mm
07:45 PM 61.3°F16.3°C 56.8°F13.8°C 85% 8.0 mph SSE12.9 kmh SSE 15.0 mph24.1 kmh 29.68 in1005.1 mb 0.00 in0.0 mm 0.00 in0.0 mm 0.07 in1.8 mm
07:40 PM 61.5°F16.4°C 57.0°F13.9°C 85% 8.0 mph SSE12.9 kmh SSE 17.0 mph27.4 kmh 29.68 in1005.1 mb 0.00 in0.0 mm 0.00 in0.0 mm 0.07 in1.8 mm
07:35 PM 61.3°F16.3°C 56.8°F13.8°C 85% 9.0 mph SSE14.5 kmh SSE 18.0 mph29.0 kmh 29.68 in1005.1 mb 0.00 in0.0 mm 0.00 in0.0 mm 0.07 in1.8 mm
07:30 PM 61.3°F16.3°C 56.8°F13.8°C 85% 6.0 mph SSE9.7 kmh SSE 12.0 mph19.3 kmh 29.68 in1005.1 mb 0.00 in0.0 mm 0.00 in0.0 mm 0.07 in1.8 mm
07:25 PM 61.3°F16.3°C 56.8°F13.8°C 85% 8.0 mph SSE12.9 kmh SSE 15.0 mph24.1 kmh 29.69 in1005.4 mb 0.00 in0.0 mm 0.00 in0.0 mm 0.07 in1.8 mm
07:20 PM 61.2°F16.2°C 56.7°F13.7°C 85% 9.0 mph SSE14.5 kmh SSE 20.0 mph32.2 kmh 29.69 in1005.4 mb 0.00 in0.0 mm 0.00 in0.0 mm 0.07 in1.8 mm
07:15 PM 61.0°F16.1°C 56.5°F13.6°C 85% 9.0 mph SSE14.5 kmh SSE 20.0 mph32.2 kmh 29.69 in1005.4 mb 0.00 in0.0 mm 0.00 in0.0 mm 0.07 in1.8 mm
07:10 PM 61.0°F16.1°C 56.5°F13.6°C 85% 5.0 mph SSE8.0 kmh SSE 13.0 mph20.9 kmh 29.68 in1005.1 mb 0.00 in0.0 mm 0.00 in0.0 mm 0.07 in1.8 mm
07:05 PM 61.0°F16.1°C 56.5°F13.6°C 85% 8.0 mph SSE12.9 kmh SSE 16.0 mph25.7 kmh 29.68 in1005.1 mb 0.00 in0.0 mm 0.00 in0.0 mm 0.07 in1.8 mm
07:00 PM 61.0°F16.1°C 56.5°F13.6°C 85% 11.0 mph SSE17.7 kmh SSE 19.0 mph30.6 kmh 29.68 in1005.1 mb 0.00 in0.0 mm 0.00 in0.0 mm 0.07 in1.8 mm
06:55 PM 60.6°F15.9°C 56.5°F13.6°C 86% 8.0 mph SSE12.9 kmh SSE 16.0 mph25.7 kmh 29.68 in1005.1 mb 0.00 in0.0 mm 0.00 in0.0 mm 0.07 in1.8 mm
06:50 PM 60.4°F15.8°C 56.3°F13.5°C 86% 6.0 mph SSE9.7 kmh SSE 13.0 mph20.9 kmh 29.68 in1005.1 mb 0.00 in0.0 mm 0.00 in0.0 mm 0.07 in1.8 mm
06:45 PM 60.4°F15.8°C 56.5°F13.6°C 87% 5.0 mph SSE8.0 kmh SSE 13.0 mph20.9 kmh 29.68 in1005.1 mb 0.00 in0.0 mm 0.00 in0.0 mm 0.07 in1.8 mm
06:40 PM 60.3°F15.7°C 56.3°F13.5°C 87% 5.0 mph SSE8.0 kmh SSE 14.0 mph22.5 kmh 29.68 in1005.1 mb 0.00 in0.0 mm 0.00 in0.0 mm 0.07 in1.8 mm
06:35 PM 60.3°F15.7°C 56.3°F13.5°C 87% 6.0 mph SE9.7 kmh SE 13.0 mph20.9 kmh 29.68 in1005.1 mb 0.00 in0.0 mm 0.00 in0.0 mm 0.07 in1.8 mm
06:30 PM 60.3°F15.7°C 56.3°F13.5°C 87% 3.0 mph SSE4.8 kmh SSE 10.0 mph16.1 kmh 29.68 in1005.1 mb 0.01 in0.3 mm 0.00 in0.0 mm 0.07 in1.8 mm
06:25 PM 60.1°F15.6°C 56.1°F13.4°C 87% 7.0 mph SSE11.3 kmh SSE 18.0 mph29.0 kmh 29.69 in1005.4 mb 0.01 in0.3 mm 0.00 in0.0 mm 0.07 in1.8 mm
06:20 PM 60.1°F15.6°C 56.1°F13.4°C 87% 7.0 mph SSE11.3 kmh SSE 14.0 mph22.5 kmh 29.69 in1005.4 mb 0.01 in0.3 mm 0.00 in0.0 mm 0.07 in1.8 mm
06:15 PM 60.3°F15.7°C 56.1°F13.4°C 86% 7.0 mph SSE11.3 kmh SSE 17.0 mph27.4 kmh 29.68 in1005.1 mb 0.01 in0.3 mm 0.00 in0.0 mm 0.07 in1.8 mm
06:10 PM 60.1°F15.6°C 56.1°F13.4°C 87% 8.0 mph SSE12.9 kmh SSE 19.0 mph30.6 kmh 29.69 in1005.4 mb 0.01 in0.3 mm 0.00 in0.0 mm 0.07 in1.8 mm
06:05 PM 60.1°F15.6°C 55.9°F13.3°C 86% 6.0 mph SE9.7 kmh SE 14.0 mph22.5 kmh 29.69 in1005.4 mb 0.01 in0.3 mm 0.00 in0.0 mm 0.07 in1.8 mm
06:00 PM 60.1°F15.6°C 55.9°F13.3°C 86% 6.0 mph SSE9.7 kmh SSE 15.0 mph24.1 kmh 29.69 in1005.4 mb 0.01 in0.3 mm 0.00 in0.0 mm 0.07 in1.8 mm
05:55 PM 60.1°F15.6°C 55.9°F13.3°C 86% 10.0 mph SSE16.1 kmh SSE 21.0 mph33.8 kmh 29.69 in1005.4 mb 0.01 in0.3 mm 0.00 in0.0 mm 0.07 in1.8 mm
05:50 PM 60.1°F15.6°C 56.1°F13.4°C 87% 6.0 mph SSE9.7 kmh SSE 14.0 mph22.5 kmh 29.69 in1005.4 mb 0.01 in0.3 mm 0.00 in0.0 mm 0.07 in1.8 mm
05:45 PM 60.1°F15.6°C 56.1°F13.4°C 87% 6.0 mph SE9.7 kmh SE 13.0 mph20.9 kmh 29.69 in1005.4 mb 0.01 in0.3 mm 0.00 in0.0 mm 0.07 in1.8 mm
05:40 PM 60.3°F15.7°C 56.1°F13.4°C 86% 6.0 mph SSE9.7 kmh SSE 22.0 mph35.4 kmh 29.69 in1005.4 mb 0.01 in0.3 mm 0.00 in0.0 mm 0.07 in1.8 mm
05:35 PM 60.3°F15.7°C 56.1°F13.4°C 86% 7.0 mph SSE11.3 kmh SSE 24.0 mph38.6 kmh 29.69 in1005.4 mb 0.01 in0.3 mm 0.09 in2.3 mm 0.07 in1.8 mm
05:30 PM 60.3°F15.7°C 56.1°F13.4°C 86% 7.0 mph SSE11.3 kmh SSE 17.0 mph27.4 kmh 29.69 in1005.4 mb 0.00 in0.0 mm 0.00 in0.0 mm 0.06 in1.5 mm
05:25 PM 60.1°F15.6°C 55.9°F13.3°C 86% 6.0 mph SSE9.7 kmh SSE 16.0 mph25.7 kmh 29.69 in1005.4 mb 0.00 in0.0 mm 0.00 in0.0 mm 0.06 in1.5 mm
05:20 PM 60.1°F15.6°C 55.9°F13.3°C 86% 3.0 mph SSE4.8 kmh SSE 13.0 mph20.9 kmh 29.69 in1005.4 mb 0.00 in0.0 mm 0.00 in0.0 mm 0.06 in1.5 mm
05:15 PM 60.1°F15.6°C 55.9°F13.3°C 86% 1.0 mph SE1.6 kmh SE 7.0 mph11.3 kmh 29.69 in1005.4 mb 0.00 in0.0 mm 0.00 in0.0 mm 0.06 in1.5 mm
05:10 PM 60.1°F15.6°C 55.9°F13.3°C 86% 3.0 mph SSE4.8 kmh SSE 9.0 mph14.5 kmh 29.70 in1005.8 mb 0.00 in0.0 mm 0.00 in0.0 mm 0.06 in1.5 mm
05:05 PM 60.3°F15.7°C 56.1°F13.4°C 86% 4.0 mph SSE6.4 kmh SSE 12.0 mph19.3 kmh 29.70 in1005.8 mb 0.00 in0.0 mm 0.00 in0.0 mm 0.06 in1.5 mm
05:00 PM 60.3°F15.7°C 56.1°F13.4°C 86% 3.0 mph SSE4.8 kmh SSE 12.0 mph19.3 kmh 29.70 in1005.8 mb 0.00 in0.0 mm 0.00 in0.0 mm 0.06 in1.5 mm
04:55 PM 60.3°F15.7°C 56.1°F13.4°C 86% 5.0 mph SSE8.0 kmh SSE 14.0 mph22.5 kmh 29.70 in1005.8 mb 0.00 in0.0 mm 0.00 in0.0 mm 0.06 in1.5 mm
04:50 PM 60.1°F15.6°C 55.9°F13.3°C 86% 5.0 mph SSE8.0 kmh SSE 12.0 mph19.3 kmh 29.71 in1006.1 mb 0.00 in0.0 mm 0.00 in0.0 mm 0.06 in1.5 mm
04:45 PM 60.1°F15.6°C 55.9°F13.3°C 86% 4.0 mph SSE6.4 kmh SSE 12.0 mph19.3 kmh 29.71 in1006.1 mb 0.01 in0.3 mm 0.00 in0.0 mm 0.06 in1.5 mm
04:40 PM 59.7°F15.4°C 55.8°F13.2°C 87% 3.0 mph SE4.8 kmh SE 12.0 mph19.3 kmh 29.71 in1006.1 mb 0.01 in0.3 mm 0.00 in0.0 mm 0.06 in1.5 mm
04:35 PM 59.7°F15.4°C 55.8°F13.2°C 87% 4.0 mph SE6.4 kmh SE 16.0 mph25.7 kmh 29.71 in1006.1 mb 0.02 in0.5 mm 0.00 in0.0 mm 0.06 in1.5 mm
04:30 PM 59.7°F15.4°C 55.8°F13.2°C 87% 3.0 mph SSE4.8 kmh SSE 12.0 mph19.3 kmh 29.72 in1006.4 mb 0.02 in0.5 mm 0.00 in0.0 mm 0.06 in1.5 mm
04:25 PM 59.5°F15.3°C 55.6°F13.1°C 87% 1.0 mph SE1.6 kmh SE 7.0 mph11.3 kmh 29.72 in1006.4 mb 0.02 in0.5 mm 0.00 in0.0 mm 0.06 in1.5 mm
04:20 PM 59.5°F15.3°C 55.6°F13.1°C 87% Calm Calm 3.0 mph4.8 kmh 29.72 in1006.4 mb 0.02 in0.5 mm 0.00 in0.0 mm 0.06 in1.5 mm
04:15 PM 59.5°F15.3°C 55.6°F13.1°C 87% Calm Calm 5.0 mph8.0 kmh 29.72 in1006.4 mb 0.02 in0.5 mm 0.00 in0.0 mm 0.06 in1.5 mm
04:10 PM 59.5°F15.3°C 55.6°F13.1°C 87% Calm Calm 5.0 mph8.0 kmh 29.72 in1006.4 mb 0.02 in0.5 mm 0.00 in0.0 mm 0.06 in1.5 mm
04:05 PM 59.5°F15.3°C 55.6°F13.1°C 87% 2.0 mph SSE3.2 kmh SSE 10.0 mph16.1 kmh 29.72 in1006.4 mb 0.02 in0.5 mm 0.00 in0.0 mm 0.06 in1.5 mm
04:00 PM 59.4°F15.2°C 55.4°F13.0°C 87% 1.0 mph ESE1.6 kmh ESE 10.0 mph16.1 kmh 29.72 in1006.4 mb 0.02 in0.5 mm 0.00 in0.0 mm 0.06 in1.5 mm
03:55 PM 59.4°F15.2°C 55.2°F12.9°C 86% 2.0 mph SSE3.2 kmh SSE 9.0 mph14.5 kmh 29.72 in1006.4 mb 0.02 in0.5 mm 0.00 in0.0 mm 0.06 in1.5 mm
03:50 PM 59.2°F15.1°C 55.0°F12.8°C 86% 1.0 mph SE1.6 kmh SE 5.0 mph8.0 kmh 29.73 in1006.8 mb 0.03 in0.8 mm 0.00 in0.0 mm 0.06 in1.5 mm
03:45 PM 59.2°F15.1°C 55.0°F12.8°C 86% 4.0 mph SSE6.4 kmh SSE 11.0 mph17.7 kmh 29.73 in1006.8 mb 0.03 in0.8 mm 0.00 in0.0 mm 0.06 in1.5 mm
03:40 PM 59.2°F15.1°C 55.0°F12.8°C 86% Calm Calm 5.0 mph8.0 kmh 29.73 in1006.8 mb 0.03 in0.8 mm 0.00 in0.0 mm 0.06 in1.5 mm
03:35 PM 59.4°F15.2°C 54.9°F12.7°C 85% 1.0 mph SSE1.6 kmh SSE 7.0 mph11.3 kmh 29.73 in1006.8 mb 0.03 in0.8 mm 0.09 in2.3 mm 0.06 in1.5 mm
03:30 PM 59.2°F15.1°C 54.7°F12.6°C 85% 4.0 mph SSE6.4 kmh SSE 14.0 mph22.5 kmh 29.74 in1007.1 mb 0.02 in0.5 mm 0.00 in0.0 mm 0.04 in1.0 mm
03:25 PM 59.2°F15.1°C 54.7°F12.6°C 85% 2.0 mph SE3.2 kmh SE 12.0 mph19.3 kmh 29.74 in1007.1 mb 0.03 in0.8 mm 0.00 in0.0 mm 0.04 in1.0 mm
03:20 PM 59.2°F15.1°C 54.7°F12.6°C 85% 2.0 mph SE3.2 kmh SE 13.0 mph20.9 kmh 29.74 in1007.1 mb 0.03 in0.8 mm 0.00 in0.0 mm 0.04 in1.0 mm
03:15 PM 59.2°F15.1°C 54.7°F12.6°C 85% 2.0 mph SSE3.2 kmh SSE 11.0 mph17.7 kmh 29.74 in1007.1 mb 0.03 in0.8 mm 0.00 in0.0 mm 0.04 in1.0 mm
03:10 PM 59.0°F15.0°C 54.1°F12.3°C 84% 1.0 mph SSE1.6 kmh SSE 9.0 mph14.5 kmh 29.74 in1007.1 mb 0.04 in1.0 mm 0.00 in0.0 mm 0.04 in1.0 mm
03:05 PM 59.2°F15.1°C 54.3°F12.4°C 84% 3.0 mph SSE4.8 kmh SSE 9.0 mph14.5 kmh 29.75 in1007.5 mb 0.04 in1.0 mm 0.00 in0.0 mm 0.04 in1.0 mm
03:00 PM 59.2°F15.1°C 54.3°F12.4°C 84% 1.0 mph SSE1.6 kmh SSE 8.0 mph12.9 kmh 29.75 in1007.5 mb 0.04 in1.0 mm 0.00 in0.0 mm 0.04 in1.0 mm
02:55 PM 59.2°F15.1°C 54.0°F12.2°C 83% 3.0 mph SSE4.8 kmh SSE 8.0 mph12.9 kmh 29.75 in1007.5 mb 0.04 in1.0 mm 0.09 in2.3 mm 0.04 in1.0 mm
02:50 PM 59.4°F15.2°C 53.8°F12.1°C 82% 5.0 mph SSE8.0 kmh SSE 15.0 mph24.1 kmh 29.75 in1007.5 mb 0.03 in0.8 mm 0.09 in2.3 mm 0.03 in0.8 mm
02:45 PM 59.5°F15.3°C 54.0°F12.2°C 82% 7.0 mph SSE11.3 kmh SSE 15.0 mph24.1 kmh 29.75 in1007.5 mb 0.02 in0.5 mm 0.00 in0.0 mm 0.03 in0.8 mm
02:40 PM 59.7°F15.4°C 54.0°F12.2°C 81% 6.0 mph SSE9.7 kmh SSE 13.0 mph20.9 kmh 29.75 in1007.5 mb 0.02 in0.5 mm 0.09 in2.3 mm 0.02 in0.5 mm
02:35 PM 60.1°F15.6°C 54.0°F12.2°C 80% 7.0 mph SSE11.3 kmh SSE 12.0 mph19.3 kmh 29.75 in1007.5 mb 0.02 in0.5 mm 0.00 in0.0 mm 0.02 in0.5 mm
02:30 PM 60.4°F15.8°C 54.3°F12.4°C 80% 6.0 mph SSE9.7 kmh SSE 16.0 mph25.7 kmh 29.76 in1007.8 mb 0.02 in0.5 mm 0.09 in2.3 mm 0.02 in0.5 mm
02:25 PM 60.8°F16.0°C 54.3°F12.4°C 79% 4.0 mph SSE6.4 kmh SSE 9.0 mph14.5 kmh 29.75 in1007.5 mb 0.01 in0.3 mm 0.00 in0.0 mm 0.02 in0.5 mm
02:20 PM 61.2°F16.2°C 54.3°F12.4°C 78% 8.0 mph SSE12.9 kmh SSE 15.0 mph24.1 kmh 29.75 in1007.5 mb 0.01 in0.3 mm 0.00 in0.0 mm 0.01 in0.3 mm
02:15 PM 61.3°F16.3°C 53.8°F12.1°C 76% 7.0 mph SSE11.3 kmh SSE 16.0 mph25.7 kmh 29.75 in1007.5 mb 0.01 in0.3 mm 0.09 in2.3 mm 0.01 in0.3 mm
02:10 PM 61.9°F16.6°C 53.8°F12.1°C 75% 5.0 mph SSE8.0 kmh SSE 10.0 mph16.1 kmh 29.76 in1007.8 mb 0.00 in0.0 mm 0.00 in0.0 mm 0.00 in0.0 mm
02:05 PM 62.2°F16.8°C 53.8°F12.1°C 74% 3.0 mph SSE4.8 kmh SSE 11.0 mph17.7 kmh 29.76 in1007.8 mb 0.00 in0.0 mm 0.00 in0.0 mm 0.00 in0.0 mm
02:00 PM 62.8°F17.1°C 54.0°F12.2°C 73% 2.0 mph SSE3.2 kmh SSE 7.0 mph11.3 kmh 29.76 in1007.8 mb 0.00 in0.0 mm 0.00 in0.0 mm 0.00 in0.0 mm
01:55 PM 63.1°F17.3°C 53.6°F12.0°C 71% 4.0 mph SSE6.4 kmh SSE 11.0 mph17.7 kmh 29.76 in1007.8 mb 0.00 in0.0 mm 0.00 in0.0 mm 0.00 in0.0 mm
01:50 PM 63.5°F17.5°C 53.6°F12.0°C 70% 5.0 mph SSE8.0 kmh SSE 13.0 mph20.9 kmh 29.76 in1007.8 mb 0.00 in0.0 mm 0.00 in0.0 mm 0.00 in0.0 mm
01:45 PM 63.9°F17.7°C 53.1°F11.7°C 68% 5.0 mph SSE8.0 kmh SSE 14.0 mph22.5 kmh 29.76 in1007.8 mb 0.00 in0.0 mm 0.00 in0.0 mm 0.00 in0.0 mm
01:40 PM 64.2°F17.9°C 52.2°F11.2°C 65% 12.0 mph S19.3 kmh S 21.0 mph33.8 kmh 29.76 in1007.8 mb 0.00 in0.0 mm 0.00 in0.0 mm 0.00 in0.0 mm
01:35 PM 64.6°F18.1°C 52.2°F11.2°C 64% 7.0 mph SSE11.3 kmh SSE 13.0 mph20.9 kmh 29.76 in1007.8 mb 0.00 in0.0 mm 0.00 in0.0 mm 0.00 in0.0 mm
01:30 PM 64.8°F18.2°C 52.3°F11.3°C 64% 6.0 mph SSE9.7 kmh SSE 13.0 mph20.9 kmh 29.76 in1007.8 mb 0.00 in0.0 mm 0.00 in0.0 mm 0.00 in0.0 mm
01:25 PM 64.9°F18.3°C 52.0°F11.1°C 63% 6.0 mph SSE9.7 kmh SSE 11.0 mph17.7 kmh 29.76 in1007.8 mb 0.00 in0.0 mm 0.00 in0.0 mm 0.00 in0.0 mm
01:20 PM 65.1°F18.4°C 52.7°F11.5°C 64% 5.0 mph S8.0 kmh S 14.0 mph22.5 kmh 29.76 in1007.8 mb 0.00 in0.0 mm 0.00 in0.0 mm 0.00 in0.0 mm
01:15 PM 65.3°F18.5°C 52.3°F11.3°C 63% 7.0 mph S11.3 kmh S 15.0 mph24.1 kmh 29.77 in1008.1 mb 0.00 in0.0 mm 0.00 in0.0 mm 0.00 in0.0 mm
01:10 PM 65.5°F18.6°C 52.2°F11.2°C 62% 10.0 mph S16.1 kmh S 15.0 mph24.1 kmh 29.77 in1008.1 mb 0.00 in0.0 mm 0.00 in0.0 mm 0.00 in0.0 mm
01:05 PM 65.8°F18.8°C 52.9°F11.6°C 63% 7.0 mph S11.3 kmh S 19.0 mph30.6 kmh 29.77 in1008.1 mb 0.00 in0.0 mm 0.00 in0.0 mm 0.00 in0.0 mm
01:00 PM 66.0°F18.9°C 52.7°F11.5°C 62% 10.0 mph S16.1 kmh S 21.0 mph33.8 kmh 29.77 in1008.1 mb 0.00 in0.0 mm 0.00 in0.0 mm 0.00 in0.0 mm
12:55 PM 66.0°F18.9°C 52.2°F11.2°C 61% 11.0 mph SSE17.7 kmh SSE 21.0 mph33.8 kmh 29.77 in1008.1 mb 0.00 in0.0 mm 0.00 in0.0 mm 0.00 in0.0 mm
12:50 PM 66.7°F19.3°C 52.3°F11.3°C 60% 9.0 mph SSE14.5 kmh SSE 18.0 mph29.0 kmh 29.77 in1008.1 mb 0.00 in0.0 mm 0.00 in0.0 mm 0.00 in0.0 mm
12:45 PM 66.7°F19.3°C 52.9°F11.6°C 61% 9.0 mph S14.5 kmh S 16.0 mph25.7 kmh 29.77 in1008.1 mb 0.00 in0.0 mm 0.00 in0.0 mm 0.00 in0.0 mm
12:40 PM 66.0°F18.9°C 52.7°F11.5°C 62% 9.0 mph S14.5 kmh S 16.0 mph25.7 kmh 29.78 in1008.5 mb 0.00 in0.0 mm 0.00 in0.0 mm 0.00 in0.0 mm
12:35 PM 66.4°F19.1°C 52.9°F11.6°C 62% 10.0 mph S16.1 kmh S 20.0 mph32.2 kmh 29.78 in1008.5 mb 0.00 in0.0 mm 0.00 in0.0 mm 0.00 in0.0 mm
12:30 PM 67.1°F19.5°C 53.2°F11.8°C 61% 9.0 mph SSE14.5 kmh SSE 18.0 mph29.0 kmh 29.78 in1008.5 mb 0.00 in0.0 mm 0.00 in0.0 mm 0.00 in0.0 mm
12:25 PM 66.9°F19.4°C 54.0°F12.2°C 63% 10.0 mph SSE16.1 kmh SSE 18.0 mph29.0 kmh 29.78 in1008.5 mb 0.00 in0.0 mm 0.00 in0.0 mm 0.00 in0.0 mm
12:20 PM 67.3°F19.6°C 54.3°F12.4°C 63% 12.0 mph SSE19.3 kmh SSE 20.0 mph32.2 kmh 29.78 in1008.5 mb 0.00 in0.0 mm 0.00 in0.0 mm 0.00 in0.0 mm
12:15 PM 66.6°F19.2°C 54.0°F12.2°C 64% 6.0 mph SSE9.7 kmh SSE 17.0 mph27.4 kmh 29.78 in1008.5 mb 0.00 in0.0 mm 0.00 in0.0 mm 0.00 in0.0 mm
12:10 PM 66.2°F19.0°C 53.6°F12.0°C 64% 8.0 mph SSE12.9 kmh SSE 17.0 mph27.4 kmh 29.78 in1008.5 mb 0.00 in0.0 mm 0.00 in0.0 mm 0.00 in0.0 mm
12:05 PM 67.5°F19.7°C 54.0°F12.2°C 62% 6.0 mph SSE9.7 kmh SSE 13.0 mph20.9 kmh 29.78 in1008.5 mb 0.00 in0.0 mm 0.00 in0.0 mm 0.00 in0.0 mm
12:00 PM 67.3°F19.6°C 55.0°F12.8°C 65% 6.0 mph S9.7 kmh S 12.0 mph19.3 kmh 29.78 in1008.5 mb 0.00 in0.0 mm 0.00 in0.0 mm 0.00 in0.0 mm
11:55 AM 65.5°F18.6°C 55.0°F12.8°C 69% 3.0 mph S4.8 kmh S 9.0 mph14.5 kmh 29.78 in1008.5 mb 0.00 in0.0 mm 0.00 in0.0 mm 0.00 in0.0 mm
11:50 AM 64.8°F18.2°C 54.0°F12.2°C 68% 6.0 mph SSE9.7 kmh SSE 14.0 mph22.5 kmh 29.79 in1008.8 mb 0.00 in0.0 mm 0.00 in0.0 mm 0.00 in0.0 mm
11:45 AM 64.4°F18.0°C 53.6°F12.0°C 68% 5.0 mph S8.0 kmh S 12.0 mph19.3 kmh 29.79 in1008.8 mb 0.00 in0.0 mm 0.00 in0.0 mm 0.00 in0.0 mm
11:40 AM 64.2°F17.9°C 53.1°F11.7°C 67% 7.0 mph SSE11.3 kmh SSE 14.0 mph22.5 kmh 29.79 in1008.8 mb 0.00 in0.0 mm 0.00 in0.0 mm 0.00 in0.0 mm
11:35 AM 64.4°F18.0°C 54.0°F12.2°C 69% 6.0 mph SSE9.7 kmh SSE 10.0 mph16.1 kmh 29.79 in1008.8 mb 0.00 in0.0 mm 0.00 in0.0 mm 0.00 in0.0 mm
11:30 AM 64.0°F17.8°C 53.6°F12.0°C 69% 4.0 mph S6.4 kmh S 8.0 mph12.9 kmh 29.79 in1008.8 mb 0.00 in0.0 mm 0.00 in0.0 mm 0.00 in0.0 mm
11:25 AM 63.9°F17.7°C 53.4°F11.9°C 69% 6.0 mph S9.7 kmh S 11.0 mph17.7 kmh 29.80 in1009.1 mb 0.00 in0.0 mm 0.00 in0.0 mm 0.00 in0.0 mm
11:20 AM 63.7°F17.6°C 54.1°F12.3°C 71% 2.0 mph SSE3.2 kmh SSE 7.0 mph11.3 kmh 29.80 in1009.1 mb 0.00 in0.0 mm 0.00 in0.0 mm 0.00 in0.0 mm
11:15 AM 63.3°F17.4°C 53.1°F11.7°C 69% 5.0 mph SSE8.0 kmh SSE 10.0 mph16.1 kmh 29.80 in1009.1 mb 0.00 in0.0 mm 0.00 in0.0 mm 0.00 in0.0 mm
11:10 AM 63.1°F17.3°C 53.2°F11.8°C 70% 5.0 mph SSE8.0 kmh SSE 11.0 mph17.7 kmh 29.79 in1008.8 mb 0.00 in0.0 mm 0.00 in0.0 mm 0.00 in0.0 mm
11:05 AM 63.1°F17.3°C 52.9°F11.6°C 69% 5.0 mph S8.0 kmh S 11.0 mph17.7 kmh 29.80 in1009.1 mb 0.00 in0.0 mm 0.00 in0.0 mm 0.00 in0.0 mm
11:00 AM 63.7°F17.6°C 52.9°F11.6°C 68% 5.0 mph SSE8.0 kmh SSE 13.0 mph20.9 kmh 29.80 in1009.1 mb 0.00 in0.0 mm 0.00 in0.0 mm 0.00 in0.0 mm
10:55 AM 63.9°F17.7°C 52.7°F11.5°C 67% 8.0 mph S12.9 kmh S 14.0 mph22.5 kmh 29.80 in1009.1 mb 0.00 in0.0 mm 0.00 in0.0 mm 0.00 in0.0 mm
10:50 AM 63.5°F17.5°C 52.3°F11.3°C 67% 7.0 mph S11.3 kmh S 13.0 mph20.9 kmh 29.80 in1009.1 mb 0.00 in0.0 mm 0.00 in0.0 mm 0.00 in0.0 mm
10:45 AM 64.0°F17.8°C 52.0°F11.1°C 65% 10.0 mph S16.1 kmh S 18.0 mph29.0 kmh 29.80 in1009.1 mb 0.00 in0.0 mm 0.00 in0.0 mm 0.00 in0.0 mm
10:40 AM 63.7°F17.6°C 52.2°F11.2°C 66% 8.0 mph S12.9 kmh S 19.0 mph30.6 kmh 29.80 in1009.1 mb 0.00 in0.0 mm 0.00 in0.0 mm 0.00 in0.0 mm
10:35 AM 63.9°F17.7°C 52.7°F11.5°C 67% 7.0 mph SSW11.3 kmh SSW 12.0 mph19.3 kmh 29.80 in1009.1 mb 0.00 in0.0 mm 0.00 in0.0 mm 0.00 in0.0 mm
10:30 AM 63.7°F17.6°C 53.2°F11.8°C 69% 6.0 mph S9.7 kmh S 13.0 mph20.9 kmh 29.81 in1009.5 mb 0.00 in0.0 mm 0.00 in0.0 mm 0.00 in0.0 mm
10:25 AM 63.3°F17.4°C 52.2°F11.2°C 67% 8.0 mph S12.9 kmh S 14.0 mph22.5 kmh 29.81 in1009.5 mb 0.00 in0.0 mm 0.00 in0.0 mm 0.00 in0.0 mm
10:20 AM 63.5°F17.5°C 52.3°F11.3°C 67% 11.0 mph S17.7 kmh S 20.0 mph32.2 kmh 29.81 in1009.5 mb 0.00 in0.0 mm 0.00 in0.0 mm 0.00 in0.0 mm
10:15 AM 63.7°F17.6°C 52.5°F11.4°C 67% 9.0 mph S14.5 kmh S 16.0 mph25.7 kmh 29.81 in1009.5 mb 0.00 in0.0 mm 0.00 in0.0 mm 0.00 in0.0 mm
10:10 AM 64.0°F17.8°C 52.9°F11.6°C 67% 8.0 mph SSE12.9 kmh SSE 15.0 mph24.1 kmh 29.81 in1009.5 mb 0.00 in0.0 mm 0.00 in0.0 mm 0.00 in0.0 mm
10:05 AM 64.6°F18.1°C 53.4°F11.9°C 67% 9.0 mph SSE14.5 kmh SSE 16.0 mph25.7 kmh 29.80 in1009.1 mb 0.00 in0.0 mm 0.00 in0.0 mm 0.00 in0.0 mm
10:00 AM 64.8°F18.2°C 53.6°F12.0°C 67% 8.0 mph SSW12.9 kmh SSW 15.0 mph24.1 kmh 29.80 in1009.1 mb 0.00 in0.0 mm 0.00 in0.0 mm 0.00 in0.0 mm
09:55 AM 64.8°F18.2°C 53.1°F11.7°C 66% 8.0 mph SSW12.9 kmh SSW 18.0 mph29.0 kmh 29.80 in1009.1 mb 0.00 in0.0 mm 0.00 in0.0 mm 0.00 in0.0 mm
09:50 AM 64.2°F17.9°C 52.7°F11.5°C 66% 9.0 mph SSE14.5 kmh SSE 18.0 mph29.0 kmh 29.81 in1009.5 mb 0.00 in0.0 mm 0.00 in0.0 mm 0.00 in0.0 mm
09:45 AM 63.9°F17.7°C 52.3°F11.3°C 66% 8.0 mph SSW12.9 kmh SSW 12.0 mph19.3 kmh 29.81 in1009.5 mb 0.00 in0.0 mm 0.00 in0.0 mm 0.00 in0.0 mm
09:40 AM 63.3°F17.4°C 52.5°F11.4°C 68% 7.0 mph SSW11.3 kmh SSW 14.0 mph22.5 kmh 29.81 in1009.5 mb 0.00 in0.0 mm 0.00 in0.0 mm 0.00 in0.0 mm
09:35 AM 63.5°F17.5°C 52.7°F11.5°C 68% 6.0 mph SSW9.7 kmh SSW 10.0 mph16.1 kmh 29.81 in1009.5 mb 0.00 in0.0 mm 0.00 in0.0 mm 0.00 in0.0 mm
09:30 AM 63.1°F17.3°C 52.9°F11.6°C 69% 5.0 mph SSW8.0 kmh SSW 10.0 mph16.1 kmh 29.81 in1009.5 mb 0.00 in0.0 mm 0.00 in0.0 mm 0.00 in0.0 mm
09:25 AM 62.4°F16.9°C 52.5°F11.4°C 70% 6.0 mph S9.7 kmh S 12.0 mph19.3 kmh 29.81 in1009.5 mb 0.00 in0.0 mm 0.00 in0.0 mm 0.00 in0.0 mm
09:20 AM 62.4°F16.9°C 53.2°F11.8°C 72% 5.0 mph SSW8.0 kmh SSW 9.0 mph14.5 kmh 29.81 in1009.5 mb 0.00 in0.0 mm 0.00 in0.0 mm 0.00 in0.0 mm
09:15 AM 61.9°F16.6°C 53.4°F11.9°C 74% 6.0 mph SSW9.7 kmh SSW 12.0 mph19.3 kmh 29.81 in1009.5 mb 0.00 in0.0 mm 0.00 in0.0 mm 0.00 in0.0 mm
09:10 AM 61.3°F16.3°C 53.4°F11.9°C 75% 7.0 mph S11.3 kmh S 12.0 mph19.3 kmh 29.81 in1009.5 mb 0.00 in0.0 mm 0.00 in0.0 mm 0.00 in0.0 mm
09:05 AM 61.2°F16.2°C 53.6°F12.0°C 76% 5.0 mph S8.0 kmh S 10.0 mph16.1 kmh 29.81 in1009.5 mb 0.00 in0.0 mm 0.00 in0.0 mm 0.00 in0.0 mm
09:00 AM 61.0°F16.1°C 53.1°F11.7°C 75% 6.0 mph SSW9.7 kmh SSW 10.0 mph16.1 kmh 29.81 in1009.5 mb 0.00 in0.0 mm 0.00 in0.0 mm 0.00 in0.0 mm
08:55 AM 60.4°F15.8°C 53.2°F11.8°C 77% 6.0 mph S9.7 kmh S 12.0 mph19.3 kmh 29.81 in1009.5 mb 0.00 in0.0 mm 0.00 in0.0 mm 0.00 in0.0 mm
08:50 AM 60.3°F15.7°C 53.1°F11.7°C 77% 6.0 mph S9.7 kmh S 11.0 mph17.7 kmh 29.81 in1009.5 mb 0.00 in0.0 mm 0.00 in0.0 mm 0.00 in0.0 mm
08:45 AM 60.3°F15.7°C 53.1°F11.7°C 77% 5.0 mph SSW8.0 kmh SSW 11.0 mph17.7 kmh 29.81 in1009.5 mb 0.00 in0.0 mm 0.00 in0.0 mm 0.00 in0.0 mm
08:40 AM 60.1°F15.6°C 53.2°F11.8°C 78% 3.0 mph SSW4.8 kmh SSW 8.0 mph12.9 kmh 29.81 in1009.5 mb 0.00 in0.0 mm 0.00 in0.0 mm 0.00 in0.0 mm
08:35 AM 59.7°F15.4°C 53.2°F11.8°C 79% 4.0 mph SSW6.4 kmh SSW 9.0 mph14.5 kmh 29.81 in1009.5 mb 0.00 in0.0 mm 0.00 in0.0 mm 0.00 in0.0 mm
08:30 AM 59.4°F15.2°C 52.9°F11.6°C 79% 6.0 mph S9.7 kmh S 10.0 mph16.1 kmh 29.81 in1009.5 mb 0.00 in0.0 mm 0.00 in0.0 mm 0.00 in0.0 mm
08:25 AM 59.2°F15.1°C 52.7°F11.5°C 79% 4.0 mph SSW6.4 kmh SSW 9.0 mph14.5 kmh 29.81 in1009.5 mb 0.00 in0.0 mm 0.00 in0.0 mm 0.00 in0.0 mm
08:20 AM 59.2°F15.1°C 53.1°F11.7°C 80% 3.0 mph SSW4.8 kmh SSW 9.0 mph14.5 kmh 29.81 in1009.5 mb 0.00 in0.0 mm 0.00 in0.0 mm 0.00 in0.0 mm
08:15 AM 58.8°F14.9°C 53.1°F11.7°C 81% 4.0 mph SSE6.4 kmh SSE 9.0 mph14.5 kmh 29.81 in1009.5 mb 0.00 in0.0 mm 0.00 in0.0 mm 0.00 in0.0 mm
08:10 AM 58.8°F14.9°C 53.1°F11.7°C 81% 3.0 mph SSW4.8 kmh SSW 7.0 mph11.3 kmh 29.81 in1009.5 mb 0.00 in0.0 mm 0.00 in0.0 mm 0.00 in0.0 mm
08:05 AM 58.6°F14.8°C 53.2°F11.8°C 82% 2.0 mph SSW3.2 kmh SSW 8.0 mph12.9 kmh 29.81 in1009.5 mb 0.00 in0.0 mm 0.00 in0.0 mm 0.00 in0.0 mm
08:00 AM 58.5°F14.7°C 53.1°F11.7°C 82% 2.0 mph SSW3.2 kmh SSW 7.0 mph11.3 kmh 29.81 in1009.5 mb 0.00 in0.0 mm 0.00 in0.0 mm 0.00 in0.0 mm
07:55 AM 58.5°F14.7°C 53.1°F11.7°C 82% 3.0 mph S4.8 kmh S 11.0 mph17.7 kmh 29.81 in1009.5 mb 0.00 in0.0 mm 0.00 in0.0 mm 0.00 in0.0 mm
07:50 AM 58.1°F14.5°C 52.9°F11.6°C 83% 2.0 mph S3.2 kmh S 9.0 mph14.5 kmh 29.81 in1009.5 mb 0.00 in0.0 mm 0.00 in0.0 mm 0.00 in0.0 mm
07:45 AM 57.7°F14.3°C 53.2°F11.8°C 85% Calm Calm -- 29.81 in1009.5 mb 0.00 in0.0 mm 0.00 in0.0 mm 0.00 in0.0 mm
07:40 AM 57.4°F14.1°C 52.5°F11.4°C 84% Calm Calm -- 29.81 in1009.5 mb 0.00 in0.0 mm 0.00 in0.0 mm 0.00 in0.0 mm
07:35 AM 57.4°F14.1°C 52.5°F11.4°C 84% 1.0 mph SSW1.6 kmh SSW 4.0 mph6.4 kmh 29.80 in1009.1 mb 0.00 in0.0 mm 0.00 in0.0 mm 0.00 in0.0 mm
07:30 AM 57.4°F14.1°C 52.9°F11.6°C 85% 1.0 mph SSW1.6 kmh SSW 3.0 mph4.8 kmh 29.80 in1009.1 mb 0.00 in0.0 mm 0.00 in0.0 mm 0.00 in0.0 mm
07:25 AM 57.0°F13.9°C 52.5°F11.4°C 85% Calm Calm 5.0 mph8.0 kmh 29.80 in1009.1 mb 0.00 in0.0 mm 0.00 in0.0 mm 0.00 in0.0 mm
07:20 AM 56.7°F13.7°C 52.2°F11.2°C 85% Calm Calm 6.0 mph9.7 kmh 29.80 in1009.1 mb 0.00 in0.0 mm 0.00 in0.0 mm 0.00 in0.0 mm
07:15 AM 56.7°F13.7°C 52.2°F11.2°C 85% Calm Calm -- 29.80 in1009.1 mb 0.00 in0.0 mm 0.00 in0.0 mm 0.00 in0.0 mm
07:10 AM 56.7°F13.7°C 52.2°F11.2°C 85% 1.0 mph SSW1.6 kmh SSW 6.0 mph9.7 kmh 29.80 in1009.1 mb 0.00 in0.0 mm 0.00 in0.0 mm 0.00 in0.0 mm
07:05 AM 56.7°F13.7°C 52.2°F11.2°C 85% 2.0 mph SSW3.2 kmh SSW 6.0 mph9.7 kmh 29.80 in1009.1 mb 0.00 in0.0 mm 0.00 in0.0 mm 0.00 in0.0 mm
07:00 AM 56.5°F13.6°C 52.0°F11.1°C 85% 2.0 mph SW3.2 kmh SW 8.0 mph12.9 kmh 29.80 in1009.1 mb 0.00 in0.0 mm 0.00 in0.0 mm 0.00 in0.0 mm
06:55 AM 56.3°F13.5°C 51.8°F11.0°C 85% Calm Calm 5.0 mph8.0 kmh 29.80 in1009.1 mb 0.00 in0.0 mm 0.00 in0.0 mm 0.00 in0.0 mm
06:50 AM 56.5°F13.6°C 51.6°F10.9°C 84% 3.0 mph SSW4.8 kmh SSW 7.0 mph11.3 kmh 29.80 in1009.1 mb 0.00 in0.0 mm 0.00 in0.0 mm 0.00 in0.0 mm
06:45 AM 56.5°F13.6°C 52.0°F11.1°C 85% 4.0 mph SSW6.4 kmh SSW 10.0 mph16.1 kmh 29.79 in1008.8 mb 0.00 in0.0 mm 0.00 in0.0 mm 0.00 in0.0 mm
06:40 AM 56.7°F13.7°C 51.8°F11.0°C 84% 5.0 mph SSW8.0 kmh SSW 10.0 mph16.1 kmh 29.79 in1008.8 mb 0.00 in0.0 mm 0.00 in0.0 mm 0.00 in0.0 mm
06:35 AM 56.5°F13.6°C 52.0°F11.1°C 85% 7.0 mph S11.3 kmh S 11.0 mph17.7 kmh 29.79 in1008.8 mb 0.00 in0.0 mm 0.00 in0.0 mm 0.00 in0.0 mm
06:30 AM 55.9°F13.3°C 51.8°F11.0°C 86% 5.0 mph S8.0 kmh S 8.0 mph12.9 kmh 29.79 in1008.8 mb 0.00 in0.0 mm 0.00 in0.0 mm 0.00 in0.0 mm
06:25 AM 55.6°F13.1°C 51.4°F10.8°C 86% 2.0 mph SSW3.2 kmh SSW 7.0 mph11.3 kmh 29.79 in1008.8 mb 0.00 in0.0 mm 0.00 in0.0 mm 0.00 in0.0 mm
06:20 AM 55.2°F12.9°C 51.1°F10.6°C 86% 1.0 mph SSW1.6 kmh SSW 4.0 mph6.4 kmh 29.79 in1008.8 mb 0.00 in0.0 mm 0.00 in0.0 mm 0.00 in0.0 mm
06:15 AM 55.2°F12.9°C 50.7°F10.4°C 85% Calm Calm -- 29.79 in1008.8 mb 0.00 in0.0 mm 0.00 in0.0 mm 0.00 in0.0 mm
06:10 AM 55.6°F13.1°C 51.1°F10.6°C 85% Calm Calm 3.0 mph4.8 kmh 29.78 in1008.5 mb 0.00 in0.0 mm 0.00 in0.0 mm 0.00 in0.0 mm
06:05 AM 55.6°F13.1°C 51.1°F10.6°C 85% Calm Calm 4.0 mph6.4 kmh 29.78 in1008.5 mb 0.00 in0.0 mm 0.00 in0.0 mm 0.00 in0.0 mm
06:00 AM 55.8°F13.2°C 51.3°F10.7°C 85% Calm Calm 4.0 mph6.4 kmh 29.78 in1008.5 mb 0.00 in0.0 mm 0.00 in0.0 mm 0.00 in0.0 mm
05:55 AM 55.9°F13.3°C 51.4°F10.8°C 85% 3.0 mph SSW4.8 kmh SSW 7.0 mph11.3 kmh 29.78 in1008.5 mb 0.00 in0.0 mm 0.00 in0.0 mm 0.00 in0.0 mm
05:50 AM 56.1°F13.4°C 51.6°F10.9°C 85% Calm Calm 6.0 mph9.7 kmh 29.78 in1008.5 mb 0.00 in0.0 mm 0.00 in0.0 mm 0.00 in0.0 mm
05:45 AM 56.5°F13.6°C 52.0°F11.1°C 85% 3.0 mph SSW4.8 kmh SSW 6.0 mph9.7 kmh 29.78 in1008.5 mb 0.00 in0.0 mm 0.00 in0.0 mm 0.00 in0.0 mm
05:40 AM 56.8°F13.8°C 52.3°F11.3°C 85% 6.0 mph SSW9.7 kmh SSW 11.0 mph17.7 kmh 29.78 in1008.5 mb 0.00 in0.0 mm 0.00 in0.0 mm 0.00 in0.0 mm
05:35 AM 56.8°F13.8°C 52.3°F11.3°C 85% 6.0 mph SSW9.7 kmh SSW 11.0 mph17.7 kmh 29.78 in1008.5 mb 0.00 in0.0 mm 0.00 in0.0 mm 0.00 in0.0 mm
05:30 AM 56.8°F13.8°C 52.7°F11.5°C 86% 4.0 mph SSW6.4 kmh SSW 8.0 mph12.9 kmh 29.78 in1008.5 mb 0.00 in0.0 mm 0.00 in0.0 mm 0.00 in0.0 mm
05:25 AM 56.8°F13.8°C 53.1°F11.7°C 87% 4.0 mph SSW6.4 kmh SSW 9.0 mph14.5 kmh 29.78 in1008.5 mb 0.00 in0.0 mm 0.00 in0.0 mm 0.00 in0.0 mm
05:20 AM 56.8°F13.8°C 53.2°F11.8°C 88% 3.0 mph SSW4.8 kmh SSW 7.0 mph11.3 kmh 29.78 in1008.5 mb 0.00 in0.0 mm 0.00 in0.0 mm 0.00 in0.0 mm
05:15 AM 56.8°F13.8°C 53.2°F11.8°C 88% 1.0 mph SSW1.6 kmh SSW 8.0 mph12.9 kmh 29.78 in1008.5 mb 0.00 in0.0 mm 0.00 in0.0 mm 0.00 in0.0 mm
05:10 AM 56.8°F13.8°C 53.6°F12.0°C 89% Calm Calm 3.0 mph4.8 kmh 29.78 in1008.5 mb 0.00 in0.0 mm 0.00 in0.0 mm 0.00 in0.0 mm
05:05 AM 56.8°F13.8°C 53.6°F12.0°C 89% 1.0 mph SW1.6 kmh SW 4.0 mph6.4 kmh 29.77 in1008.1 mb 0.00 in0.0 mm 0.00 in0.0 mm 0.00 in0.0 mm
05:00 AM 56.8°F13.8°C 53.6°F12.0°C 89% 1.0 mph SW1.6 kmh SW 6.0 mph9.7 kmh 29.77 in1008.1 mb 0.00 in0.0 mm 0.00 in0.0 mm 0.00 in0.0 mm
04:55 AM 56.8°F13.8°C 53.6°F12.0°C 89% 1.0 mph SW1.6 kmh SW 7.0 mph11.3 kmh 29.77 in1008.1 mb 0.00 in0.0 mm 0.00 in0.0 mm 0.00 in0.0 mm
04:50 AM 56.8°F13.8°C 54.0°F12.2°C 90% Calm Calm 3.0 mph4.8 kmh 29.77 in1008.1 mb 0.00 in0.0 mm 0.00 in0.0 mm 0.00 in0.0 mm
04:45 AM 56.7°F13.7°C 53.8°F12.1°C 90% Calm Calm -- 29.76 in1007.8 mb 0.00 in0.0 mm 0.00 in0.0 mm 0.00 in0.0 mm
04:40 AM 56.5°F13.6°C 53.6°F12.0°C 90% Calm Calm -- 29.76 in1007.8 mb 0.00 in0.0 mm 0.00 in0.0 mm 0.00 in0.0 mm
04:35 AM 56.5°F13.6°C 53.6°F12.0°C 90% Calm Calm -- 29.76 in1007.8 mb 0.00 in0.0 mm 0.00 in0.0 mm 0.00 in0.0 mm
04:30 AM 56.5°F13.6°C 53.6°F12.0°C 90% Calm Calm -- 29.76 in1007.8 mb 0.00 in0.0 mm 0.00 in0.0 mm 0.00 in0.0 mm
04:25 AM 56.3°F13.5°C 53.4°F11.9°C 90% Calm Calm -- 29.76 in1007.8 mb 0.00 in0.0 mm 0.00 in0.0 mm 0.00 in0.0 mm
04:20 AM 56.1°F13.4°C 53.2°F11.8°C 90% Calm Calm -- 29.76 in1007.8 mb 0.00 in0.0 mm 0.00 in0.0 mm 0.00 in0.0 mm
04:15 AM 56.1°F13.4°C 52.9°F11.6°C 89% Calm Calm -- 29.76 in1007.8 mb 0.00 in0.0 mm 0.00 in0.0 mm 0.00 in0.0 mm
04:10 AM 55.9°F13.3°C 52.7°F11.5°C 89% Calm Calm -- 29.76 in1007.8 mb 0.00 in0.0 mm 0.00 in0.0 mm 0.00 in0.0 mm
04:05 AM 56.1°F13.4°C 52.9°F11.6°C 89% Calm Calm -- 29.76 in1007.8 mb 0.00 in0.0 mm 0.00 in0.0 mm 0.00 in0.0 mm
04:00 AM 56.1°F13.4°C 52.9°F11.6°C 89% Calm Calm -- 29.76 in1007.8 mb 0.00 in0.0 mm 0.00 in0.0 mm 0.00 in0.0 mm
03:55 AM 56.5°F13.6°C 52.9°F11.6°C 88% Calm Calm -- 29.75 in1007.5 mb 0.00 in0.0 mm 0.00 in0.0 mm 0.00 in0.0 mm
03:50 AM 56.8°F13.8°C 53.6°F12.0°C 89% Calm Calm -- 29.75 in1007.5 mb 0.00 in0.0 mm 0.00 in0.0 mm 0.00 in0.0 mm
03:45 AM 57.4°F14.1°C 54.1°F12.3°C 89% Calm Calm -- 29.75 in1007.5 mb 0.00 in0.0 mm 0.00 in0.0 mm 0.00 in0.0 mm
03:40 AM 57.4°F14.1°C 54.1°F12.3°C 89% Calm Calm 3.0 mph4.8 kmh 29.75 in1007.5 mb 0.00 in0.0 mm 0.00 in0.0 mm 0.00 in0.0 mm
03:35 AM 57.2°F14.0°C 54.0°F12.2°C 89% Calm Calm 1.0 mph1.6 kmh 29.75 in1007.5 mb 0.00 in0.0 mm 0.00 in0.0 mm 0.00 in0.0 mm
03:30 AM 57.4°F14.1°C 54.1°F12.3°C 89% Calm Calm -- 29.75 in1007.5 mb 0.00 in0.0 mm 0.00 in0.0 mm 0.00 in0.0 mm
03:25 AM 57.2°F14.0°C 54.0°F12.2°C 89% Calm Calm -- 29.75 in1007.5 mb 0.00 in0.0 mm 0.00 in0.0 mm 0.00 in0.0 mm
03:20 AM 57.2°F14.0°C 54.0°F12.2°C 89% Calm Calm -- 29.75 in1007.5 mb 0.00 in0.0 mm 0.00 in0.0 mm 0.00 in0.0 mm
03:15 AM 57.2°F14.0°C 54.0°F12.2°C 89% Calm Calm -- 29.75 in1007.5 mb 0.00 in0.0 mm 0.00 in0.0 mm 0.00 in0.0 mm
03:10 AM 57.0°F13.9°C 53.8°F12.1°C 89% Calm Calm -- 29.74 in1007.1 mb 0.00 in0.0 mm 0.00 in0.0 mm 0.00 in0.0 mm
03:05 AM 57.0°F13.9°C 53.8°F12.1°C 89% Calm Calm -- 29.74 in1007.1 mb 0.00 in0.0 mm 0.00 in0.0 mm 0.00 in0.0 mm
03:00 AM 57.0°F13.9°C 53.8°F12.1°C 89% Calm Calm -- 29.74 in1007.1 mb 0.00 in0.0 mm 0.00 in0.0 mm 0.00 in0.0 mm
02:55 AM 57.0°F13.9°C 53.8°F12.1°C 89% Calm Calm -- 29.74 in1007.1 mb 0.00 in0.0 mm 0.00 in0.0 mm 0.00 in0.0 mm
02:50 AM 57.0°F13.9°C 53.8°F12.1°C 89% Calm Calm -- 29.74 in1007.1 mb 0.00 in0.0 mm 0.00 in0.0 mm 0.00 in0.0 mm
02:45 AM 57.0°F13.9°C 53.8°F12.1°C 89% Calm Calm -- 29.73 in1006.8 mb 0.00 in0.0 mm 0.00 in0.0 mm 0.00 in0.0 mm
02:40 AM 57.0°F13.9°C 53.8°F12.1°C 89% Calm Calm -- 29.73 in1006.8 mb 0.00 in0.0 mm 0.00 in0.0 mm 0.00 in0.0 mm
02:35 AM 57.0°F13.9°C 53.8°F12.1°C 89% 2.0 mph SW3.2 kmh SW 6.0 mph9.7 kmh 29.73 in1006.8 mb 0.00 in0.0 mm 0.00 in0.0 mm 0.00 in0.0 mm
02:30 AM 56.8°F13.8°C 53.6°F12.0°C 89% 1.0 mph SW1.6 kmh SW 6.0 mph9.7 kmh 29.72 in1006.4 mb 0.00 in0.0 mm 0.00 in0.0 mm 0.00 in0.0 mm
02:25 AM 56.8°F13.8°C 53.6°F12.0°C 89% 3.0 mph SW4.8 kmh SW 7.0 mph11.3 kmh 29.72 in1006.4 mb 0.00 in0.0 mm 0.00 in0.0 mm 0.00 in0.0 mm
02:20 AM 56.7°F13.7°C 53.4°F11.9°C 89% 2.0 mph SW3.2 kmh SW 7.0 mph11.3 kmh 29.72 in1006.4 mb 0.00 in0.0 mm 0.00 in0.0 mm 0.00 in0.0 mm
02:15 AM 56.5°F13.6°C 52.9°F11.6°C 88% 1.0 mph SW1.6 kmh SW 4.0 mph6.4 kmh 29.72 in1006.4 mb 0.00 in0.0 mm 0.00 in0.0 mm 0.00 in0.0 mm
02:10 AM 56.5°F13.6°C 52.9°F11.6°C 88% 1.0 mph SW1.6 kmh SW 5.0 mph8.0 kmh 29.72 in1006.4 mb 0.00 in0.0 mm 0.00 in0.0 mm 0.00 in0.0 mm
02:05 AM 56.7°F13.7°C 53.1°F11.7°C 88% Calm Calm 1.0 mph1.6 kmh 29.71 in1006.1 mb 0.00 in0.0 mm 0.00 in0.0 mm 0.00 in0.0 mm
02:00 AM 57.0°F13.9°C 53.4°F11.9°C 88% 1.0 mph WSW1.6 kmh WSW 5.0 mph8.0 kmh 29.71 in1006.1 mb 0.00 in0.0 mm 0.00 in0.0 mm 0.00 in0.0 mm
01:55 AM 57.0°F13.9°C 53.4°F11.9°C 88% 1.0 mph WSW1.6 kmh WSW 7.0 mph11.3 kmh 29.71 in1006.1 mb 0.00 in0.0 mm 0.00 in0.0 mm 0.00 in0.0 mm
01:50 AM 57.4°F14.1°C 53.8°F12.1°C 88% 2.0 mph SW3.2 kmh SW 7.0 mph11.3 kmh 29.71 in1006.1 mb 0.00 in0.0 mm 0.00 in0.0 mm 0.00 in0.0 mm
01:45 AM 57.4°F14.1°C 53.6°F12.0°C 87% 2.0 mph SW3.2 kmh SW 6.0 mph9.7 kmh 29.71 in1006.1 mb 0.00 in0.0 mm 0.00 in0.0 mm 0.00 in0.0 mm
01:40 AM 57.4°F14.1°C 53.6°F12.0°C 87% Calm Calm 4.0 mph6.4 kmh 29.71 in1006.1 mb 0.00 in0.0 mm 0.00 in0.0 mm 0.00 in0.0 mm
01:35 AM 57.6°F14.2°C 53.8°F12.1°C 87% 1.0 mph SW1.6 kmh SW 5.0 mph8.0 kmh 29.71 in1006.1 mb 0.00 in0.0 mm 0.00 in0.0 mm 0.00 in0.0 mm
01:30 AM 57.6°F14.2°C 54.0°F12.2°C 88% 2.0 mph SW3.2 kmh SW 7.0 mph11.3 kmh 29.71 in1006.1 mb 0.00 in0.0 mm 0.00 in0.0 mm 0.00 in0.0 mm
01:25 AM 57.4°F14.1°C 53.8°F12.1°C 88% 1.0 mph SW1.6 kmh SW 5.0 mph8.0 kmh 29.71 in1006.1 mb 0.00 in0.0 mm 0.00 in0.0 mm 0.00 in0.0 mm
01:20 AM 57.4°F14.1°C 53.8°F12.1°C 88% Calm Calm 4.0 mph6.4 kmh 29.71 in1006.1 mb 0.00 in0.0 mm 0.00 in0.0 mm 0.00 in0.0 mm
01:15 AM 57.0°F13.9°C 53.4°F11.9°C 88% Calm Calm -- 29.71 in1006.1 mb 0.00 in0.0 mm 0.00 in0.0 mm 0.00 in0.0 mm
01:10 AM 57.0°F13.9°C 53.4°F11.9°C 88% Calm Calm -- 29.71 in1006.1 mb 0.00 in0.0 mm 0.00 in0.0 mm 0.00 in0.0 mm
01:05 AM 56.8°F13.8°C 53.1°F11.7°C 87% Calm Calm -- 29.71 in1006.1 mb 0.00 in0.0 mm 0.00 in0.0 mm 0.00 in0.0 mm
01:00 AM 56.8°F13.8°C 53.1°F11.7°C 87% Calm Calm 6.0 mph9.7 kmh 29.71 in1006.1 mb 0.00 in0.0 mm 0.00 in0.0 mm 0.00 in0.0 mm
12:55 AM 57.0°F13.9°C 52.9°F11.6°C 86% Calm Calm -- 29.70 in1005.8 mb 0.00 in0.0 mm 0.00 in0.0 mm 0.00 in0.0 mm
12:50 AM 57.4°F14.1°C 53.2°F11.8°C 86% Calm Calm -- 29.71 in1006.1 mb 0.00 in0.0 mm 0.00 in0.0 mm 0.00 in0.0 mm
12:45 AM 57.6°F14.2°C 53.1°F11.7°C 85% Calm Calm 4.0 mph6.4 kmh 29.70 in1005.8 mb 0.00 in0.0 mm 0.00 in0.0 mm 0.00 in0.0 mm
12:40 AM 57.9°F14.4°C 53.4°F11.9°C 85% Calm Calm 6.0 mph9.7 kmh 29.70 in1005.8 mb 0.00 in0.0 mm 0.00 in0.0 mm 0.00 in0.0 mm
12:35 AM 57.9°F14.4°C 53.4°F11.9°C 85% Calm Calm 5.0 mph8.0 kmh 29.70 in1005.8 mb 0.00 in0.0 mm 0.00 in0.0 mm 0.00 in0.0 mm
12:30 AM 57.9°F14.4°C 53.4°F11.9°C 85% 2.0 mph SSW3.2 kmh SSW 6.0 mph9.7 kmh 29.70 in1005.8 mb 0.00 in0.0 mm 0.00 in0.0 mm 0.00 in0.0 mm
12:25 AM 57.9°F14.4°C 53.4°F11.9°C 85% 2.0 mph SSW3.2 kmh SSW 7.0 mph11.3 kmh 29.70 in1005.8 mb 0.00 in0.0 mm 0.00 in0.0 mm 0.00 in0.0 mm
12:20 AM 57.9°F14.4°C 53.4°F11.9°C 85% Calm Calm 1.0 mph1.6 kmh 29.70 in1005.8 mb 0.00 in0.0 mm 0.00 in0.0 mm 0.00 in0.0 mm
12:15 AM 57.9°F14.4°C 53.4°F11.9°C 85% 1.0 mph SSW1.6 kmh SSW 7.0 mph11.3 kmh 29.70 in1005.8 mb 0.00 in0.0 mm 0.00 in0.0 mm 0.00 in0.0 mm
12:10 AM 57.9°F14.4°C 53.1°F11.7°C 84% 1.0 mph SW1.6 kmh SW 6.0 mph9.7 kmh 29.70 in1005.8 mb 0.00 in0.0 mm 0.00 in0.0 mm 0.00 in0.0 mm
12:05 AM 58.1°F14.5°C 53.6°F12.0°C 85% 1.0 mph SSW1.6 kmh SSW 7.0 mph11.3 kmh 29.69 in1005.4 mb 0.00 in0.0 mm 0.00 in0.0 mm 0.00 in0.0 mm
12:00 AM 57.9°F14.4°C 53.4°F11.9°C 85% 4.0 mph SSW6.4 kmh SSW 9.0 mph14.5 kmh 29.69 in1005.4 mb 0.00 in0.0 mm 0.00 in0.0 mm 0.00 in0.0 mm